Flag for Afghanistan Weather past 2 weeks in Herat, Afghanistan

Now
88 °F

Passing clouds.


Feels Like: 84 °F
Forecast: 80 / 104 °F
Wind: 10 mph from Northeast

Location: Herat Airport

Current Time: Jul 2, 2015 at 8:35:59 AM

Latest Report: Jul 2, 2015 at 7:25 AM


Visibility: N/A

Pressure: 29.92 "Hg

Humidity: 18%

Dew point: 39 °F

Location of HeratLocation

Historic Weather in Herat — Graph

°F

Herat temperature yesterday

Maximum temperature yesterday: 102 °F (at 2:25 PM)
Minimum temperature yesterday: 77 °F (at 5:25 AM)
Average temperature yesterday: 94 °F

Past Weeks' High & Low Weather Summary

 TemperatureHumidityPressure
High106 °F (Jun 18, 3:25 PM)31% (Jun 24, 5:50 AM)29.95 "Hg (Jun 24, 5:50 AM)
Low68 °F (Jun 25, 3:45 AM)5% (Jun 17, 1:24 PM)29.62 "Hg (Jun 18, 5:24 PM)
Average92 °F11%29.76 "Hg
* Reported Jun 17 7:24 AM — Jul 2 7:25 AM, Herat, Weather by CustomWeather, © 2015

Note: Actual official high and low records may vary slightly from our data, if they occured in-between our weather recording intervals... More about our weather records

Advertising

Herat weather history for previous 24 hours

 ConditionsComfort  
Time TempWeatherWind HumidityBarometerVisibility
7:25 AM
Thu, Jul 2
88 °FPassing clouds.10 mph18%29.92 "HgN/A
6:25 AM81 °FSunny.7 mph23%29.92 "Hg10 mi
9:25 PM
Wed, Jul 1
90 °FClear.6 mph13%29.86 "Hg10 mi
8:25 PM91 °FClear.7 mph11%29.86 "Hg10 mi
7:25 PM95 °FPassing clouds.12 mph10%29.83 "HgN/A
6:25 PM97 °FPassing clouds.14 mph10%29.83 "HgN/A
5:25 PM99 °FClear.16 mph9%29.80 "Hg5 mi
4:25 PM100 °FClear.18 mph7%29.80 "Hg5 mi
3:25 PM102 °FClear.17 mph8%29.80 "Hg5 mi
2:25 PM102 °FExtremely hot.15 mph8%29.83 "Hg5 mi
1:25 PM100 °FExtremely hot.18 mph8%29.83 "Hg5 mi
12:24 PM100 °FSunny.17 mph8%29.86 "Hg10 mi
11:25 AM99 °FPassing clouds.15 mph10%29.86 "HgN/A
10:24 AM97 °FPassing clouds.17 mph10%29.89 "HgN/A
9:25 AM95 °FPassing clouds.18 mph11%29.89 "HgN/A
8:25 AM91 °FSunny.9 mph15%29.89 "Hg10 mi
Weather by CustomWeather, © 2015

See weather overviewHow to use our weather pages